Volver al catálogo

STARLINK-35146

ActivoComunicacionesVLEO
NORAD 65421·PAYLOAD·🇺🇸 United States

Lanzado Aug 31, 2025 desde Cape Canaveral Space Force Station

Loading…

Próximos Pases (próximas 24 horas)

TLE

ActualizadoSource: CelesTrak SupGP

Época: Sep 14, 2026, 22:53 UTC

1 65421C 25192T   26257.95395833  .00037494  00000+0  12059-2 0  2576
2 65421  53.1583  71.7613 0001097  83.2837 225.6878 15.31678395    15

Sigue STARLINK-35146 en tiempo real con AllMySat

Download on the App Store